TJS-14

Last updated on Thu Jul 03 2025 00:02:49 GMT+0000 (Coordinated Universal Time)

1 62804U 25017A 25183.57022727 .00000124 00000+0 00000+0 0 9991 2 62804 1.6290 285.3023 0001420 264.9219 314.2539 1.00274039 1760
UTC large
Height (km)
Speed (km/s)
/
Latitude / Longitude
Inclination (degrees)
Orbital Period (minutes)
Azimuth
Elevation
Range (km)
Doppler Factor

Next 0 passes for location: London (51.5072 / 0.1276)

Sorry there are no passes over London.